Weather History for West Plains, MO

Change the Weather History Date:

Sunday, May 5, 2013

  Actual Average Record
Temperature  
Mean Temperature 45 °F 63 °F  
Max Temperature 54 °F 74 °F 91 °F (1952)
Min Temperature 35 °F 51 °F 34 °F (2005)
Degree Days  
Heating Degree Days 20 4  
Month to date heating degree days 82 21  
Since 1 July heating degree days 4444 4283  
Cooling Degree Days 0 2  
Month to date cooling degree days 2 6  
Year to date cooling degree days 21 34  
Moisture  
Dew Point 45 °F    
Average Humidity 83    
Maximum Humidity 100    
Minimum Humidity 66    
Precipitation  
Precipitation 0.23 in 0.22 in 1.30 in (1961)
Month to date precipitation 1.36 1.05  
Year to date precipitation 17.64 15.38  
Sea Level Pressure  
Sea Level Pressure 29.97 in    
Wind  
Wind Speed 8 mph (NW)    
Max Wind Speed 14 mph    
Max Gust Speed 18 mph    
Visibility 7 miles    
Events Rain    
T = Trace of Precipitation, MM = Missing Value Source: NWS Daily Summary

Daily Weather History Graph

Daily Weather History Graph

Search for Another Location

Airport:

Trip Planner

Search our weather history database for the weather conditions in past years. The results will help you decide how hot, cold, wet, or windy it might be!

Date:

Astronomy

May. 05, 2013 Rise Set
Actual Time 6:08 AM CDT 8:00 PM CDT
Civil Twilight 5:40 AM CDT 8:28 PM CDT
Nautical Twilight 5:06 AM CDT 9:02 PM CDT
Astronomical Twilight 4:30 AM CDT 9:39 PM CDT
Moon 3:33 AM CDT (5/5) 4:05 PM CDT (5/5)
Length of Visible Light 14h 47m
Length of Day
13h 51m
Waning Crescent, 18% of the Moon is Illuminated
May 5
Waning Crescent
May 9
New
May 17
First Quarter
May 24
Full
May 31
Last Quarter

Hourly Weather History & Observations

Time (CDT) Temp. Windchill Dew Point Humidity Pressure Visibility Wind Dir Wind Speed Gust Speed Precip Events Conditions
12:53 AM 34.0 °F - 33.1 °F 96% 29.99 in 10.0 mi Calm Calm - N/A   Clear
1:53 AM 36.0 °F 33.3 °F 33.1 °F 89% 29.99 in 10.0 mi North 3.5 mph - N/A   Scattered Clouds
2:53 AM 37.0 °F 32.4 °F 33.1 °F 86% 29.98 in 10.0 mi North 5.8 mph - 0.01 in   Overcast
3:53 AM 37.0 °F 32.4 °F 34.0 °F 89% 29.98 in 10.0 mi North 5.8 mph - N/A   Clear
4:53 AM 36.0 °F 32.1 °F 34.0 °F 93% 29.98 in 10.0 mi North 4.6 mph - N/A   Clear
5:53 AM 36.0 °F 30.3 °F 34.0 °F 93% 29.99 in 10.0 mi North 6.9 mph - N/A   Clear
6:53 AM 36.0 °F 30.3 °F 35.1 °F 97% 30.00 in 10.0 mi NNW 6.9 mph - N/A   Clear
7:53 AM 44.1 °F 39.0 °F 37.9 °F 79% 30.00 in 10.0 mi North 9.2 mph - N/A   Clear
8:53 AM 46.9 °F - 37.9 °F 71% 30.00 in 10.0 mi North 9.2 mph - N/A   Clear
9:53 AM 46.9 °F - 37.9 °F 71% 30.01 in 10.0 mi North 9.2 mph 18.4 mph N/A   Partly Cloudy
10:53 AM 51.1 °F - 41.0 °F 68% 30.01 in 10.0 mi NW 11.5 mph 16.1 mph N/A   Overcast
11:16 AM 50.0 °F - 41.0 °F 71% 29.99 in 10.0 mi WNW 9.2 mph 16.1 mph N/A   Overcast
11:53 AM 53.1 °F - 43.0 °F 69% 29.99 in 10.0 mi NNW 10.4 mph - N/A   Overcast
12:53 PM 51.1 °F - 43.0 °F 74% 29.99 in 10.0 mi WNW 9.2 mph - N/A   Overcast
1:53 PM 51.1 °F - 46.0 °F 83% 29.99 in 6.0 mi NNW 10.4 mph - 0.00 in Rain Light Rain
2:22 PM 48.2 °F - 46.4 °F 93% 29.98 in 4.0 mi NNW 9.2 mph - 0.01 in   Overcast
2:43 PM 50.0 °F - 46.4 °F 87% 29.98 in 4.0 mi NW 6.9 mph - 0.02 in Rain Light Rain
2:47 PM 50.0 °F - 46.4 °F 87% 29.98 in 2.5 mi NW 9.2 mph - 0.02 in Rain Light Rain
2:50 PM 50.0 °F - 46.4 °F 87% 29.98 in 1.8 mi NW 8.1 mph - 0.03 in Rain Light Rain
2:53 PM 50.0 °F - 48.0 °F 93% 29.99 in 1.5 mi NW 10.4 mph - 0.03 in Rain Light Rain
3:01 PM 50.0 °F - 48.2 °F 94% 29.98 in 2.0 mi NW 12.7 mph - 0.01 in Rain Light Rain
3:14 PM 50.0 °F - 48.2 °F 94% 29.98 in 1.8 mi NW 6.9 mph - 0.03 in Rain Light Rain
3:21 PM 50.0 °F - 48.2 °F 94% 29.98 in 1.2 mi NW 9.2 mph - 0.04 in Rain Light Rain
3:44 PM 50.0 °F - 48.2 °F 94% 29.97 in 1.5 mi WNW 5.8 mph - 0.09 in Rain Light Rain
4:12 PM 50.0 °F - 48.2 °F 94% 29.96 in 2.5 mi NW 10.4 mph - 0.02 in Rain Light Rain
4:53 PM 50.0 °F - 48.9 °F 96% 29.97 in 2.0 mi WNW 8.1 mph - 0.05 in Rain Light Rain
5:36 PM 50.0 °F - 48.2 °F 94% 29.95 in 3.0 mi WNW 5.8 mph - 0.01 in Rain Light Rain
5:42 PM 50.0 °F - 48.2 °F 94% 29.95 in 3.0 mi WNW 9.2 mph - 0.01 in Rain Light Rain
5:53 PM 50.0 °F - 48.9 °F 96% 29.96 in 4.0 mi WNW 5.8 mph - 0.02 in   Overcast
6:53 PM 51.1 °F - 48.9 °F 92% 29.96 in 10.0 mi NW 6.9 mph - 0.00 in   Overcast
7:53 PM 51.1 °F - 50.0 °F 96% 29.95 in 10.0 mi West 4.6 mph - N/A   Overcast
8:34 PM 51.8 °F - 50.0 °F 94% 29.94 in 10.0 mi WNW 4.6 mph - N/A   Overcast
8:53 PM 52.0 °F - 50.0 °F 93% 29.94 in 10.0 mi WNW 4.6 mph - 0.00 in Rain Light Rain
9:40 PM 53.6 °F - 51.8 °F 94% 29.95 in 9.0 mi NW 4.6 mph - 0.01 in Rain Light Rain
9:53 PM 53.1 °F - 51.1 °F 93% 29.96 in 10.0 mi NW 5.8 mph - 0.01 in Rain Light Rain
10:21 PM 53.6 °F - 51.8 °F 94% 29.96 in 10.0 mi NW 10.4 mph 16.1 mph 0.00 in   Overcast
10:45 PM 53.6 °F - 51.8 °F 94% 29.96 in 9.0 mi NW 9.2 mph - 0.01 in Rain Light Rain
10:53 PM 53.1 °F - 51.1 °F 93% 29.96 in 10.0 mi NNW 9.2 mph - 0.01 in Rain Light Rain
11:12 PM 53.6 °F - 51.8 °F 94% 29.95 in 10.0 mi NW 8.1 mph - 0.00 in   Overcast
11:48 PM 53.6 °F - 51.8 °F 94% 29.95 in 10.0 mi NW 5.8 mph - 0.00 in   Overcast
11:53 PM 53.1 °F - 51.1 °F 93% 29.94 in 10.0 mi NW 6.9 mph - 0.00 in   Overcast